User: anonymous   Login
Location: Campillo
(40.8621°N, 4.2488°W)
Time: 23:43:44
(UTC+00:00)
Language:

Cosmos 1733 Rocket - Orbit

View from above orbital plane
View from above orbital plane
View from above satellite
View from above satellite

Ground track
Ground track

The orbit data is extracted from the following two-line orbital elements,

1 16612U 86018B   21204.41703769  .00000074  00000-0  60026-5 0  9995
2 16612  82.5185 331.5619 0016204 249.1995 170.0538 14.84310953792445
Epoch (UTC): 23 July 2021 10:00:32
Eccentricity: 0.0016204
inclination: 82.5185°
perigee height: 604 km
apogee height: 627 km
right ascension of ascending node: 331.5619°
argument of perigee: 249.1995°
revolutions per day: 14.84310953
mean anomaly at epoch: 170.0538°
orbit number at epoch: 79244

The dashed part of the orbit path shows where the satellite is in the earth's shadow,  

DLR